Waarnemingen

Advertentie
Mijn weer
Barcelona/Aeropuerto, Spanje (8181): temperatuur & dauwpunt: 16.10.2017 15:00:00 - 22.10.2017 15:00:00 (CEST)Barcelona/Aeropuerto, Spanje (8181): windsnelheid: 16.10.2017 15:00:00 - 22.10.2017 15:00:00 (CEST)Barcelona/Aeropuerto, Spanje (8181): windrichting: 16.10.2017 15:00:00 - 22.10.2017 15:00:00 (CEST)Barcelona/Aeropuerto, Spanje (8181): luchtdruk: 16.10.2017 15:00:00 - 22.10.2017 15:00:00 (CEST)Barcelona/Aeropuerto, Spanje (8181): zicht: 16.10.2017 15:00:00 - 22.10.2017 15:00:00 (CEST)
Datum & Tijd tt [°C] td [°C] ff [km/u] ff [kn] dd ppp [hPa] vv [km]
22.10.2017 15:00:00 21,8 8,7 28 15 ZW 1023,0 30
22.10.2017 14:00:00 21,4 7,5 15 8 Z 1023,6 40
22.10.2017 13:00:00 20,8 8,7 5 3 NO 1024,6 30
22.10.2017 12:00:00 18,9 8,3 15 8 N 1025,4 30
22.10.2017 11:00:00 18,0 8,4 15 8 N 1025,2 40
22.10.2017 10:00:00 16,6 7,9 18 10 N 1025,2 30
22.10.2017 09:00:00 15,8 7,3 16 9 N 1024,6 30
22.10.2017 08:00:00 16,2 7,5 16 9 N 1024,0 25
22.10.2017 07:00:00 16,5 7,6 16 9 N 1023,3 30
22.10.2017 06:00:00 17,4 8,6 16 9 N 1023,3 30
22.10.2017 05:00:00 18,0 10,7 11 6 N 1022,7 20
22.10.2017 04:00:00 19,5 15,0 5 3 NNO 1023,1 30
22.10.2017 03:00:00 20,5 16,5 13 7 OZO 1022,8 18
22.10.2017 02:00:00 20,6 17,0 8 4 N 1022,9 17
22.10.2017 01:00:00 20,0 16,6 2 1 WNW 1022,5 22
22.10.2017 00:00:00 20,1 16,3 8 4 N 1022,2 25
21.10.2017 23:00:00 19,8 16,2 11 6 N 1021,9 18
21.10.2017 22:00:00 19,9 16,3 8 4 N 1021,4 28
21.10.2017 21:00:00 21,0 18,2 13 7 WZW 1020,9 15
21.10.2017 20:00:00 21,4 18,2 15 8 WZW 1020,5 25
21.10.2017 19:00:00 21,9 17,9 15 8 WZW 1020,1 30
21.10.2017 18:00:00 23,0 17,9 15 8 WZW 1019,9 30
21.10.2017 17:00:00 23,7 16,4 22 12 WZW 1019,7 30
21.10.2017 16:00:00 23,6 16,3 18 10 WZW 1019,6 30
21.10.2017 15:00:00 23,5 16,3 16 9 ZW 1019,9 30
21.10.2017 14:00:00 23,5 17,1 16 9 ZW 1020,6 30
21.10.2017 13:00:00 23,0 16,1 18 10 ZW 1021,1 30
21.10.2017 12:00:00 22,4 16,0 18 10 ZW 1021,3 30
21.10.2017 11:00:00 21,6 16,1 18 10 WZW 1021,1 30
21.10.2017 10:00:00 18,9 15,2 2 1 NW 1020,7 19
21.10.2017 09:00:00 15,9 13,6 9 5 N 1020,2 16
21.10.2017 08:00:00 15,0 13,4 4 2 NNW 1019,8 15
21.10.2017 07:00:00 15,6 13,6 5 3 N 1019,9 14
21.10.2017 06:00:00 16,1 14,1 15 8 N 1019,4 15
21.10.2017 05:00:00 16,3 14,5 11 6 N 1019,6 15
21.10.2017 04:00:00 16,4 14,9 11 6 NNW 1020,1 14
21.10.2017 03:00:00 16,7 15,2 9 5 N 1020,4 14
21.10.2017 02:00:00 17,1 15,4 4 2 N 1020,7 18
21.10.2017 01:00:00 17,2 15,5 4 2 NNW 1020,7 18
21.10.2017 00:00:00 17,8 16,1 4 2 NNW 1021,0 -
20.10.2017 23:00:00 18,6 16,6 4 2 N 1020,9 18
20.10.2017 22:00:00 19,2 16,8 5 3 NW 1020,6 17
20.10.2017 21:00:00 20,1 17,1 4 2 NW 1020,1 16
20.10.2017 20:00:00 20,7 17,1 8 4 WNW 1019,6 20
20.10.2017 19:00:00 21,6 16,6 8 4 ZZO 1019,0 30
20.10.2017 18:00:00 22,2 16,6 9 5 ZO 1018,8 30
20.10.2017 17:00:00 23,2 16,5 9 5 ZO 1018,7 28
20.10.2017 16:00:00 22,7 16,1 8 4 O 1018,5 27
20.10.2017 15:00:00 21,6 16,4 5 3 OZO 1018,5 30
20.10.2017 14:00:00 20,9 15,7 15 8 O 1018,8 29
20.10.2017 13:00:00 21,3 16,2 11 6 ONO 1019,0 30
20.10.2017 12:00:00 20,8 16,1 15 8 N 1018,5 28
20.10.2017 11:00:00 19,5 16,5 15 8 N 1018,1 28
20.10.2017 10:00:00 18,0 16,2 16 9 N 1017,3 15
20.10.2017 09:00:00 16,6 15,3 16 9 N 1016,7 17
20.10.2017 08:00:00 16,6 15,6 11 6 N 1015,6 15
20.10.2017 07:00:00 16,6 15,8 8 4 N 1014,8 17
20.10.2017 06:00:00 16,4 15,4 4 2 NO 1014,4 7
20.10.2017 05:00:00 16,6 15,6 4 2 NO 1014,0 4,0
20.10.2017 04:00:00 17,1 15,8 13 7 NNO 1013,3 9
20.10.2017 03:00:00 16,7 15,7 11 6 N 1012,9 15
20.10.2017 02:00:00 17,2 15,9 18 10 N 1013,0 2,0
20.10.2017 01:00:00 17,8 16,0 16 9 NNO 1012,1 30
20.10.2017 00:00:00 17,0 15,7 11 6 N 1011,6 24
19.10.2017 23:00:00 17,8 16,0 11 6 N 1011,1 30
19.10.2017 22:00:00 18,2 15,8 11 6 NO 1010,3 26
19.10.2017 21:00:00 - - - - - - -
19.10.2017 20:00:00 - - - - - - 18
19.10.2017 19:00:00 - - - - - - -
19.10.2017 18:00:00 16,7 15,9 18 10 NNO 1006,5 3,3
19.10.2017 17:00:00 16,5 15,4 26 14 N 1006,8 4,0
19.10.2017 16:00:00 15,9 14,8 16 9 NNW 1007,5 4,9
19.10.2017 15:00:00 16,3 15,2 13 7 N 1008,6 6
19.10.2017 14:00:00 16,6 15,0 16 9 N 1009,5 15
19.10.2017 13:00:00 16,3 15,0 18 10 N 1010,3 23
19.10.2017 12:00:00 16,0 14,4 18 10 N 1011,3 16
19.10.2017 11:00:00 15,8 14,5 15 8 N 1011,5 6
19.10.2017 10:00:00 16,0 13,9 22 12 NNW 1011,3 30
19.10.2017 09:00:00 16,3 14,5 13 7 N 1010,5 30
19.10.2017 08:00:00 16,9 14,2 21 11 NNW 1009,8 20
19.10.2017 07:00:00 20,1 16,0 16 9 Z 1009,2 25
19.10.2017 06:00:00 17,6 16,1 8 4 NNO 1010,0 30
19.10.2017 05:00:00 17,2 16,4 9 5 NNO 1009,8 4,0
19.10.2017 04:00:00 17,2 16,2 15 8 N 1010,5 11
19.10.2017 03:00:00 16,6 15,8 13 7 N 1010,7 9
19.10.2017 02:00:00 17,1 16,0 11 6 N 1011,2 8
19.10.2017 01:00:00 16,8 15,7 11 6 N 1011,2 11
19.10.2017 00:00:00 17,4 15,9 9 5 OZO 1011,9 7
18.10.2017 23:00:00 16,9 15,2 22 12 N 1011,2 18
18.10.2017 22:00:00 16,9 15,2 13 7 N 1012,1 26
18.10.2017 21:00:00 16,7 15,6 11 6 NO 1012,6 14
18.10.2017 20:00:00 - - - - - - -
18.10.2017 19:00:00 22,5 16,5 9 5 ZO 1012,4 18
18.10.2017 18:00:00 21,8 18,2 16 9 O 1011,1 23
18.10.2017 17:00:00 22,8 17,9 13 7 ZO 1011,9 15
18.10.2017 16:00:00 23,1 17,6 13 7 OZO 1012,3 30
18.10.2017 15:00:00 23,0 17,8 13 7 ZZO 1013,3 22
18.10.2017 14:00:00 23,4 17,6 9 5 ZZO 1014,3 26
18.10.2017 13:00:00 23,8 17,5 13 7 OZO 1014,8 28
18.10.2017 12:00:00 - - - - - - -
18.10.2017 11:00:00 22,9 16,5 8 4 NO 1016,1 10
18.10.2017 10:00:00 20,5 15,5 11 6 NNO 1016,4 12
18.10.2017 09:00:00 18,8 15,1 11 6 N 1016,5 10
18.10.2017 08:00:00 18,1 14,8 13 7 N 1016,4 12
18.10.2017 07:00:00 18,2 14,9 13 7 N 1016,6 12
18.10.2017 06:00:00 18,5 15,0 11 6 N 1016,8 12
18.10.2017 05:00:00 18,7 15,0 13 7 N 1017,2 13
18.10.2017 04:00:00 18,9 15,0 11 6 N 1018,0 16
18.10.2017 03:00:00 18,8 15,1 13 7 N 1018,7 14
18.10.2017 02:00:00 18,3 15,0 11 6 N 1019,3 16
18.10.2017 01:00:00 18,0 14,9 11 6 N 1019,8 19
18.10.2017 00:00:00 18,7 15,0 11 6 N 1020,2 21
17.10.2017 23:00:00 19,3 15,2 9 5 N 1020,3 19
17.10.2017 22:00:00 19,8 15,4 5 3 NW 1020,2 28
17.10.2017 21:00:00 21,1 15,9 5 3 W 1020,2 30
17.10.2017 20:00:00 21,2 15,5 8 4 WZW 1020,4 30
17.10.2017 19:00:00 22,4 15,7 11 6 ZW 1020,2 30
17.10.2017 18:00:00 23,6 15,6 15 8 ZW 1020,5 30
17.10.2017 17:00:00 24,3 15,8 15 8 Z 1020,6 30
17.10.2017 16:00:00 24,7 15,8 13 7 Z 1021,0 30
17.10.2017 15:00:00 24,2 16,1 13 7 ZZO 1021,7 23
17.10.2017 14:00:00 24,3 16,5 11 6 Z 1022,7 30
17.10.2017 13:00:00 24,2 15,9 9 5 ZZO 1023,4 30
17.10.2017 12:00:00 23,8 15,5 8 4 NO 1023,7 30
17.10.2017 11:00:00 21,6 14,6 11 6 N 1024,1 13
17.10.2017 10:00:00 19,3 14,1 16 9 N 1024,2 14
17.10.2017 09:00:00 17,1 13,6 16 9 N 1024,1 10
17.10.2017 08:00:00 16,5 13,6 15 8 N 1023,6 14
17.10.2017 07:00:00 16,4 13,7 13 7 N 1023,8 14
17.10.2017 06:00:00 16,8 14,0 15 8 N 1023,9 13
17.10.2017 05:00:00 17,1 14,2 11 6 N 1024,2 14
17.10.2017 04:00:00 17,5 14,4 13 7 N 1024,7 18
17.10.2017 03:00:00 18,5 14,8 13 7 N 1025,1 22
17.10.2017 02:00:00 18,5 14,8 13 7 N 1025,6 17
17.10.2017 01:00:00 18,5 14,8 13 7 N 1026,0 30
17.10.2017 00:00:00 19,0 15,1 2 1 N 1026,2 22
16.10.2017 23:00:00 19,3 14,8 0 0 N 1026,3 6
16.10.2017 22:00:00 20,0 14,9 8 4 NNW 1025,9 26
16.10.2017 21:00:00 21,9 14,5 4 2 Z 1025,9 30
16.10.2017 20:00:00 22,3 14,9 8 4 Z 1025,9 30
16.10.2017 19:00:00 22,7 15,1 8 4 Z 1025,7 30
16.10.2017 18:00:00 23,6 15,6 11 6 Z 1025,6 30
16.10.2017 17:00:00 24,2 16,1 13 7 Z 1025,7 30
16.10.2017 16:00:00 24,5 15,5 13 7 Z 1025,9 30
16.10.2017 15:00:00 24,5 15,7 13 7 Z 1026,3 30

tt = temperatuur
td = dauwpunt
ff = windsnelheid
dd = windrichting
ppp = luchtdruk
vv = zicht

Weerstations in de omgeving